Powrót do katalogu

FENGYUN 1C DEB

AktywnySSO
NORAD 30021·DEBRIS·🇨🇳 China

Wystrzelony May 10, 1999 z Taiyuan Satellite Launch Center

Loading…

Następne Przeloty (najbliższe 24 godziny)

TLE

ŚwieżeSource: Space-Track

Epoka: Sep 14, 2026, 11:21 UTC

1 30021U 99025MW  26257.47346200 -.00000163  00000-0 -72600-4 0  9990
2 30021  98.8564 247.1483 0071721 234.6009 288.2205 14.04984579  8049

Śledź FENGYUN 1C DEB w czasie rzeczywistym z AllMySat

Download on the App Store